Overview Statistics Trail Chart Weather Telemetry Raw packets
 

This is the latest recevied weather packets stored in our database for station/object KB0BS-13. If no packets are shown the sender has not sent any weather packets the latest 10 day(s).

<< 61 62 63 64 65 66 67 >>
Time Temp. Humidity Pressure Rain* Wind** Luminosity Snow
1777281945 2.22° C 90% 1021.8 hPa 0 mm - 0 W/m² -
1777281642 2.22° C 90% 1021.8 hPa 0 mm - 0 W/m² -
1777281339 2.22° C 90% 1021.8 hPa 0 mm - 0 W/m² -
1777281035 2.78° C 88% 1021.8 hPa 0 mm - 0 W/m² -
1777280733 2.22° C 88% 1021.9 hPa 0 mm - 0 W/m² -
1777280429 2.22° C 88% 1021.8 hPa 0 mm - 0 W/m² -
1777280126 2.78° C 87% 1022 hPa 0 mm - 0 W/m² -
1777279822 2.78° C 86% 1022 hPa 0 mm - 0 W/m² -
1777279520 2.78° C 86% 1022 hPa 0 mm - 0 W/m² -
1777279217 3.33° C 85% 1021.8 hPa 0 mm - 0 W/m² -
1777278909 3.33° C 85% 1021.4 hPa 0 mm - 0 W/m² -
1777278604 3.33° C 84% 1021.6 hPa 0 mm - 0 W/m² -
1777278301 3.33° C 84% 1021.4 hPa 0 mm - 0 W/m² -
1777277997 3.33° C 85% 1021.7 hPa 0 mm - 0 W/m² -
1777277694 3.33° C 84% 1021.8 hPa 0 mm - 0 W/m² -
1777277390 3.33° C 84% 1021.4 hPa 0 mm - 0 W/m² -
1777277085 3.33° C 83% 1021.4 hPa 0 mm - 0 W/m² -
1777276780 3.89° C 83% 1021.4 hPa 0 mm - 0 W/m² -
1777276479 3.89° C 82% 1021.4 hPa 0 mm - 0 W/m² -
1777276173 3.89° C 81% 1021.7 hPa 0 mm - 0 W/m² -
1777275871 3.89° C 81% 1021.4 hPa 0 mm - 0 W/m² -
1777275569 3.33° C 83% 1021.7 hPa 0 mm - 0 W/m² -
1777275266 3.33° C 84% 1021.7 hPa 0 mm - 0 W/m² -
1777274960 3.33° C 83% 1021.8 hPa 0 mm - 0 W/m² -
1777274658 3.33° C 83% 1021.8 hPa 0 mm - 0 W/m² -

* Rain latest hour (hover to see other rain measurements)
** Current wind speed in m/s (hover to see current wind gust speed)